Brier Island, Nova Scotia

2:08 AM ADT on April 24, 2017 (GMT -0300)
Brier Island

Weather History for CWVU - February, 2013

Change the Weather History Date:

Tuesday, February 12, 2013

  Actual Average Record
Temperature  
Mean Temperature 39 °F -  
Max Temperature 43 °F - - ()
Min Temperature 35 °F - - ()
Degree Days  
Heating Degree Days 26    
Moisture  
Dew Point 37 °F    
Average Humidity 88    
Maximum Humidity 100    
Minimum Humidity 64    
Precipitation  
Precipitation 0.08 in - - ()
Sea Level Pressure  
Sea Level Pressure 29.53 in    
Wind  
Wind Speed 18 mph ()    
Max Wind Speed 33 mph    
Max Gust Speed 39 mph    
T = Trace of Precipitation, MM = Missing Value Source: Averaged Metar Reports

Daily Weather History Graph

Daily Weather History Graph

Search for Another Location

Airport or City:

Trip Planner

Search our weather history database for the weather conditions in past years. The results will help you decide how hot, cold, wet, or windy it might be!

Date:

Astronomy

Feb. 12, 2013 Rise Set
Actual Time 7:29 AM AST 5:50 PM AST
Civil Twilight 6:59 AM AST 6:20 PM AST
Nautical Twilight 6:25 AM AST 6:54 PM AST
Astronomical Twilight 5:51 AM AST 7:28 PM AST
Moon 8:16 AM AST (2/12) 8:56 PM AST (2/12)
Length of Visible Light 11h 21m
Length of Day
10h 21m
Waxing Crescent, 7% of the Moon is Illuminated
Feb 12
Waxing Crescent
Feb 17
First Quarter
Feb 25
Full
Mar 4
Last Quarter
Mar 11
New

Hourly Weather History & Observations

Time (AST) Temp. Windchill Dew Point Humidity Pressure Visibility Wind Dir Wind Speed Gust Speed Precip Events Conditions
12:00 AM 40.3 °F 29.9 °F 39.7 °F 98% 29.65 in - SE 24.2 mph - 0.02 in   Unknown
1:00 AM 40.3 °F 31.9 °F 40.1 °F 99% 29.60 in - SSE 16.1 mph - 0.02 in   Unknown
2:00 AM 41 °F - 41 °F 100% 29.56 in - SSE 12.7 mph - -  
2:00 AM 41.4 °F 34.3 °F 41.2 °F 99% 29.56 in - SSE 12.7 mph - N/A   Unknown
3:00 AM 42.6 °F 37.8 °F 42.4 °F 99% 29.54 in - South 8.1 mph - N/A   Unknown
4:00 AM 42.6 °F 38.4 °F 42.4 °F 99% 29.52 in - SW 6.9 mph - N/A   Unknown
5:00 AM 41.9 °F 37.5 °F 41.7 °F 99% 29.51 in - SW 6.9 mph - N/A   Unknown
6:00 AM 40.6 °F 35.4 °F 40.6 °F 100% 29.47 in - SW 8.1 mph - N/A   Unknown
7:00 AM 39.6 °F 32.5 °F 39.6 °F 100% 29.47 in - WSW 11.5 mph - N/A   Unknown
8:00 AM 39 °F - 39 °F 100% 29.45 in - West 18.4 mph - -  
8:00 AM 39.4 °F 30.1 °F 39.2 °F 99% 29.45 in - West 18.4 mph - N/A   Unknown
9:00 AM 38.1 °F 26.4 °F 36.7 °F 95% 29.47 in - West 27.6 mph - N/A   Unknown
10:00 AM 36.9 °F 24.9 °F 36.0 °F 97% 29.48 in - West 26.5 mph - 0.05 in   Unknown
11:00 AM 36.5 °F 23.7 °F 35.6 °F 97% 29.49 in - West 29.9 mph - 0.02 in   Unknown
12:00 PM 37.2 °F 24.9 °F 34.9 °F 91% 29.50 in - West 28.8 mph - N/A   Unknown
1:00 PM 38.5 °F 27.1 °F 35.1 °F 87% 29.50 in - West 26.5 mph 32.2 mph N/A   Unknown
2:00 PM 39 °F - 35 °F 78% 29.51 in - West 25.3 mph - -  
2:00 PM 39.4 °F 28.5 °F 34.5 °F 83% 29.51 in - West 25.3 mph - N/A   Unknown
3:00 PM 39.6 °F 28.3 °F 33.4 °F 79% 29.52 in - West 27.6 mph 34.5 mph N/A   Unknown
4:00 PM 39.4 °F 27.9 °F 33.3 °F 79% 29.52 in - West 28.8 mph 38.0 mph N/A   Unknown
5:00 PM 39.7 °F 28.3 °F 33.8 °F 79% 29.54 in - West 28.8 mph 35.7 mph N/A   Unknown
6:00 PM 39.9 °F 28.2 °F 33.1 °F 77% 29.55 in - West 31.1 mph 36.8 mph N/A   Unknown
7:00 PM 40.1 °F 28.8 °F 33.6 °F 78% 29.57 in - West 28.8 mph - N/A   Unknown
8:00 PM 41 °F - 33 °F 64% 29.57 in - West 33.4 mph - -  
8:00 PM 40.6 °F 28.8 °F 32.9 °F 74% 29.57 in - West 33.4 mph 39.1 mph N/A   Unknown
9:00 PM 40.5 °F 29.1 °F 34.3 °F 79% 29.60 in - West 29.9 mph 36.8 mph N/A   Unknown
10:00 PM 40.3 °F 28.3 °F 31.3 °F 70% 29.61 in - West 33.4 mph - N/A   Unknown
11:00 PM 40.1 °F 28.4 °F 32.9 °F 75% 29.65 in - West 31.1 mph - N/A   Unknown